Regional Weather Roundup
Issued by NWS

Home | Current Version | Previous Version | Graphics & Text | Print | Product List | Glossary On
Versions: 1 2 3 4 5 6 7 8 9 10 11 12 13 14 15 16 17 18 19 20 21 22 23 24 25 26 27 28 29 30 31 32 33 34 35 36 37 38 39 40 41 42 43 44 45 46 47 48 49 50
069
ASUS44 KLIX 270805
RWRLA
LOUISIANA WEATHER ROUNDUP
NATIONAL WEATHER SERVICE NEW ORLEANS LA
300 AM CDT WED AUG 27 2014

NOTE: "FAIR" INDICATES FEW OR NO CLOUDS BELOW 12,000 FEET WITH NO
      SIGNIFICANT WEATHER AND/OR OBSTRUCTIONS TO VISIBILITY.
      SKY/WX - SKY CONDITION AND SIGNIFICANT WEATHER.
      TMP - AIR TEMPERATURE.    DP   - DEWPOINT TEMPERATURE.
      RH  - RELATIVE HUMIDITY.  PRES - PRESSURE.
      HX  - HEAT INDEX.         WCI  - WIND CHILL INDEX.

*  THESE STATIONS ARE NOT NWS OR FAA STATIONS AND ARE NOT UNDER
   NWS QUALITY CONTROL.

LAZ040-048-061>063-065-066-069-270900-
SOUTHEAST LOUISIANA

CITY           SKY/WX    TMP DP  RH WIND       PRES   REMARKS
N.O. AUDUBON     N/A     81  76  84 MISG        N/A
N.O. INTL ARPT PTCLDY    81  74  79 E5        29.96F
N.O. LAKEFRONT CLEAR     83  75  77 E8        29.97S
N.O. DOWNTOWN* FAIR      81  72  74 CALM      29.97S
SLIDELL        CLEAR     74  71  91 N5        29.97F
BATON ROUGE    CLEAR     74  71  91 CALM      29.98S
BOOTHVILLE     CLEAR     82  75  79 E5        29.96S
BELLE CHASSE   PTCLDY    78  73  84 NE3       29.96S
BOGALUSA*      FAIR      73  68  86 CALM      30.01S
GALLIANO*      NOT AVBL
NEW ROADS*     FAIR      73  71  93 CALM      29.99S
GONZALES*      FAIR      74  74  99 CALM      29.97S FOG
HAMMOND*       CLEAR     73  70  88 CALM      30.00S
HOUMA*         CLEAR     76  72  88 CALM      29.96S
PORT FOURCHON* MOSUNNY   82  73  74 E10       29.96S

$$

LAZ041-044-053-054-270900-
SOUTHWEST LOUISIANA

CITY           SKY/WX    TMP DP  RH WIND       PRES   REMARKS
LAKE CHARLES   CLEAR     77  74  90 NE5       29.97
LAFAYETTE      CLEAR     76  73  91 NE3       29.97F
PATTERSON        N/A     75  73  94 NE5       29.99S
SALT POINT       N/A     79  76  90 CALM      29.95S
NEW IBERIA     CLEAR     78  74  87 NE7       29.97F
CHENAULT AIRPK CLEAR     76  73  90 N3        29.98F

$$

LAZ027-028-270900-
CENTRAL LOUISIANA

CITY           SKY/WX    TMP DP  RH WIND       PRES   REMARKS
FORT POLK      CLEAR     74  67  78 NE6       30.00S
ALEXANDRIA INT CLEAR     70  68  93 CALM      29.99R
ALEXANDRIA     CLEAR     70  67  90 CALM      30.01R

$$

LAZ001-002-270900-
NORTHWEST LOUISIANA

CITY           SKY/WX    TMP DP  RH WIND       PRES   REMARKS
SHREVEPORT     PTCLDY    75  69  81 CALM      30.01S
BARKSDALE AFB  CLEAR     73  69  88 CALM      30.02S
DTN SHREVEPORT CLEAR     73  70  90 CALM      30.02S

$$

LAZ014-016-270900-
NORTHEAST LOUISIANA

CITY           SKY/WX    TMP DP  RH WIND       PRES   REMARKS
MONROE         CLEAR     70  67  90 CALM      30.03S
TALLULAH       CLEAR     70  67  90 CALM      30.02S

$$




USA.gov is the U.S. government's official web portal to all federal, state and local government web resources and services.